Regional Weather Roundup
Issued by NWS

Home | Current Version | Previous Version | Text Only | Print | Product List | Glossary Off
Versions: 1 2 3 4 5 6 7 8 9 10 11 12 13 14 15 16 17 18 19 20 21 22 23 24 25 26 27 28 29 30 31 32 33 34 35 36 37 38 39 40 41 42 43 44 45 46 47 48 49 50

000
ASUS45 KTFX 100110
RWRMT
MONTANA REGIONAL WEATHER ROUNDUP
NATIONAL WEATHER SERVICE GREAT FALLS MT
600 PM MST SAT DEC 09 2017

NOTE: "FAIR" INDICATES FEW OR NO CLOUDS BELOW 12000 FEET WITH NO
SIGNIFICANT WEATHER AND/OR OBSTRUCTIONS TO VISIBILITY.

MTZ001>007-043-100200-
WEST OF THE DIVIDE

CITY           SKY/WX    TMP DP  RH WIND       PRES   REMARKS
KALISPELL      CLOUDY    26  20  77 CALM      30.63S
MISSOULA       CLOUDY    21  18  88 CALM      30.62R
BUTTE          FAIR      15  10  80 SE5       30.50R
MULLAN PASS    FAIR      35  12  38 W3        30.49S
ANACONDA         N/A     16  12  86 S3        30.52R
DEER LODGE       N/A     14  12  92 CALM      30.55S
EUREKA           N/A     25  18  74 MISG      30.65S
HAMILTON         N/A     18  14  86 CALM      30.59S
LIBBY            N/A    N/A N/A N/A CALM      30.63S
PLAINS           N/A     29  19  66 CALM      30.60S
RONAN            N/A     26  21  81 S2        30.60S
$$

MTZ008-052>055-100200-
SOUTHWEST MONTANA

CITY           SKY/WX    TMP DP  RH WIND       PRES   REMARKS
BOZEMAN        FAIR      23  17  78 S5        30.48R
DILLON         FAIR      26  14  60 S3        30.49R
W YELLOWSTONE  FAIR      10   9  92 CALM      30.58R
ENNIS          CLOUDY    32  18  55 S14G21    30.53S WCI  22
THREE FORKS      N/A     15  10  80 CALM      30.41S
TWIN BRIDGES     N/A     31  14  49 CALM      30.42S
$$

MTZ009-010-012-014-046-048-049-054-100200-
EAST SLOPES AND CENTRAL MONTANA

CITY           SKY/WX    TMP DP  RH WIND       PRES   REMARKS
CUT BANK       FAIR      40   8  26 W17       30.26S
GREAT FALLS    FAIR      41   9  26 SW15      30.32S
MALMSTROM AFB  FAIR      40  12  31 SW16      30.32R
HELENA         FAIR      23  17  78 SW5       30.46S
BOWMANS CRNR   FAIR      36   9  33 S13       30.34R WCI  27
CHOTEAU          N/A     50   3  14 W16       30.31R
FAIRFIELD      FAIR      42   3  19 W3        30.30R
POWER          FAIR      36   7  29 SW10      30.30R WCI  29
RAYNESFORD     FAIR      48   7  19 SW18      30.31S
ULM            FAIR      39  11  31 S12       30.34R WCI  32
$$

MTZ011-013-016-021-045-047-050-051-100200-
NORTH CENTRAL MONTANA

CITY           SKY/WX    TMP DP  RH WIND       PRES   REMARKS
HAVRE          FAIR      36  12  37 SW14      30.24R WCI  27
LEWISTOWN      FAIR      34  18  52 SW14      30.31R WCI  25
N BAR RANCH    FAIR      45   3  18 NW15      30.29S
CHINOOK          N/A     37   9  30 CALM      30.22S
DENTON         FAIR      42   8  25 MISG      30.25S
GEYSER         FAIR      46   7  20 W22       30.29S
GRASS RANGE    FAIR      44  12  27 W18       30.24S
STANFORD       FAIR      40   7  25 CALM      30.31S
WINIFRED       FAIR      43   6  21 MISG      30.27S
$$

MTZ017>020-022>027-061-062-100200-
NORTHEAST MONTANA

CITY           SKY/WX    TMP DP  RH WIND       PRES   REMARKS
GLASGOW        FAIR      42  11  28 W12       30.16R
GLENDIVE       FAIR      44  16  32 NW15      30.12R
JORDAN           N/A     31   9  39 W7        30.20R WCI  24
SIDNEY         FAIR      40  22  48 NW7       30.07R
WOLF POINT     FAIR      43  14  31 W17       30.11R
MALTA          CLEAR     36  10  35 W10       30.19S WCI  28
PLENTYWOOD       N/A     39  25  56 W12       30.01S WCI  32
POPLAR           N/A     39  12  33 CALM      30.10R
SCOBEY           N/A     41  18  39 W2        30.05R
$$

MTZ028>42-056>058-100200-
SOUTHCENTRAL AND SOUTHEAST MONTANA

CITY           SKY/WX    TMP DP  RH WIND       PRES   REMARKS
BAKER          FAIR      39  22  50 W14       30.14R WCI  31
BILLINGS       FAIR      41  18  39 SW20      30.30R
LIVINGSTON     FAIR      48  10  21 W24       30.39F
MILES CITY     FAIR      42  14  32 NW9       30.20R
BIG TIMBER     CLEAR     48   3  15 W33G40    30.35S
EKALAKA          N/A     42  13  31 W12       30.14R
FORSYTH          N/A     46  10  23 W6        30.24R
HARLOWTON      FAIR      42   9  25 W29       30.34S
LAUREL           N/A     36  19  51 SW10      30.33S WCI  28
$$

REGIONAL REPORTS...DAKOTAS

CITY           SKY/WX    TMP DP  RH WIND       PRES   REMARKS
WILLISTON      FAIR      41  25  53 W9        30.02R
MINOT          FAIR      41  24  51 W26G36    29.90R
DICKINSON      FAIR      41  23  48 W25       29.99S
BEACH          CLOUDY    39  19  45 W14       30.12F WCI  31
CROSBY         FAIR      36  25  64 NW15      29.97R WCI  26
TIOGA          FAIR      36  25  64 W14       29.98R WCI  27
WATFORD CITY   FAIR      43  23  45 W16       30.00S
BISMARCK       FAIR      41  27  57 W14       29.91F
GRAND FORKS    MOCLDY    27  24  89 S9        29.75F WCI  18
FARGO          FAIR      30  25  81 SW15      29.82F WCI  19
BUFFALO SD       N/A     44  20  38 W26       30.05R
RAPID CITY     FAIR      55   7  14 NW26G35   30.13R
$$

REGIONAL REPORTS...WYOMING/IDAHO/WASHINGTON

CITY           SKY/WX    TMP DP  RH WIND       PRES   REMARKS
GILLETTE       FAIR      40  12  32 W16       30.27R
SHERIDAN       FAIR      29  15  56 SW7       30.31R WCI  22
BUFFALO WY     FAIR      44   5  20 CALM      30.33R
CODY           FAIR      28  18  66 CALM      30.37S
YELLOWSTONE LA   N/A     17  14  88 CALM      30.57R
IDAHO FALLS    FAIR      10   8  92 CALM      30.63R
SALMON         CLOUDY    19  15  84 W3        30.74R
BOISE          CLOUDY    28  20  71 S6        30.70R WCI  22
SPOKANE        CLOUDY    28  25  88 N6        30.62R WCI  22
$$

REGIONAL REPORTS...ALBERTA

CITY           SKY/WX    TMP DP  RH WIND       PRES   REMARKS
EDMONTON       CLEAR     37  19  48 W9        30.08R WCI  31
CALGARY        PTCLDY    54   3  13 W14G24    30.18S
LETHBRIDGE     PTCLDY    45  10  24 W17G24    30.23R
MEDICINE HAT   CLEAR     32  18  55 SW10      30.19S WCI  24
$$

REGIONAL REPORTS...SASKATCHEWAN

CITY           SKY/WX    TMP DP  RH WIND       PRES   REMARKS
SWIFT CURRENT  CLEAR     37  18  44 W16G26    30.09R WCI  28
REGINA         MOCLDY    34  25  69 NW13      29.97R WCI  25
SASKATOON      PTCLDY    30  23  74 W3        29.98R
$$



USA.gov is the U.S. government's official web portal to all federal, state and local government web resources and services.